Back to catalog

COSMOS 2235

GLONASS

AliveNavigationMEO
NORAD 22514·PAYLOAD·🇷🇺 Russia

Launched Feb 17, 1993 from Baikonur Cosmodrome

Loading…

Next Passes (next 24 hours)

TLE

FreshSource: Space-Track

Epoch: Sep 14, 2026, 03:57 UTC

1 22514U 93010C   26257.16503323 -.00000014  00000-0  00000-0 0  9998
2 22514  64.9716  67.2611 0008246 205.5198 336.3368  2.13102542261182

Track COSMOS 2235 in real time with AllMySat

Download on the App Store